Weather History for Colby, KS

Change the Weather History Date:

Monday, December 31, 2012

  Actual Average (KGLD) Record (KGLD)
Temperature  
Mean Temperature 20 °F 29 °F  
Max Temperature 23 °F 42 °F 64 °F (1942)
Min Temperature 17 °F 17 °F -13 °F (1927)
Degree Days  
Heating Degree Days 45 36  
Month to date heating degree days 1092  
Since 1 July heating degree days 2407  
Cooling Degree Days 0 0  
Month to date cooling degree days 0  
Year to date cooling degree days 941  
Moisture  
Dew Point 21 °F    
Average Humidity 99    
Maximum Humidity 100    
Minimum Humidity 86    
Precipitation  
Precipitation 0.00 in 0.01 in 0.62 in (1924)
Month to date precipitation 0.46  
Year to date precipitation 19.66  
Snow  
Snow 0.00 in 0.20 in - ()
Month to date snowfall 5.5  
Since 1 July snowfall 12.7  
Snow Depth -    
Sea Level Pressure  
Sea Level Pressure 30.05 in    
Wind  
Wind Speed 11 mph (NNE)    
Max Wind Speed 16 mph    
Max Gust Speed -    
Visibility 5 miles    
Events Snow    
T = Trace of Precipitation, MM = Missing Value Source: NWS Daily Summary

Daily Weather History Graph

Daily Weather History Graph

Search for Another Location

Airport:

Trip Planner

Search our weather history database for the weather conditions in past years. The results will help you decide how hot, cold, wet, or windy it might be!

Date:

Astronomy

Dec. 31, 2012 Rise Set
Actual Time 8:04 AM CST 5:30 PM CST
Civil Twilight 7:34 AM CST 6:01 PM CST
Nautical Twilight 7:00 AM CST 6:34 PM CST
Astronomical Twilight 6:27 AM CST 7:07 PM CST
Moon 9:02 PM CST (12/31) 9:47 AM CST (12/31)
Length of Visible Light 10h 26m
Length of Day
9h 26m
Waning Gibbous, 90% of the Moon is Illuminated
Dec 31
Waning Gibbous
Jan 4
Last Quarter
Jan 11
New
Jan 18
First Quarter
Jan 26
Full

Hourly Weather History & Observations

Time (CST) Temp. Windchill Dew Point Humidity Pressure Visibility Wind Dir Wind Speed Gust Speed Precip Events Conditions
12:15 AM 21.2 °F 10.1 °F 17.6 °F 86% 30.07 in 10.0 mi North 10.4 mph - N/A   Clear
12:35 AM 19.4 °F 7.9 °F 17.6 °F 93% 30.06 in 10.0 mi North 10.4 mph - N/A   Clear
12:55 AM 21.2 °F 10.1 °F 17.6 °F 86% 30.06 in 10.0 mi North 10.4 mph - N/A   Clear
1:15 AM 21.2 °F 9.5 °F 19.4 °F 93% 30.03 in 10.0 mi North 11.5 mph - N/A   Clear
1:35 AM 21.2 °F 10.1 °F 19.4 °F 93% 30.02 in 10.0 mi North 10.4 mph - N/A   Clear
1:55 AM 21.2 °F 10.1 °F 19.4 °F 93% 30.04 in 10.0 mi North 10.4 mph - N/A   Clear
2:15 AM 21.2 °F 9.5 °F 19.4 °F 93% 30.04 in 10.0 mi North 11.5 mph - N/A   Clear
2:35 AM 21.2 °F 9.5 °F 19.4 °F 93% 30.05 in 10.0 mi North 11.5 mph - N/A   Clear
2:55 AM 21.2 °F 9.5 °F 19.4 °F 93% 30.05 in 10.0 mi North 11.5 mph - N/A   Clear
3:15 AM 23.0 °F 11.1 °F 19.4 °F 86% 30.05 in 10.0 mi North 12.7 mph - N/A   Clear
3:35 AM 21.2 °F 8.3 °F 19.4 °F 93% 30.03 in 10.0 mi North 13.8 mph - N/A   Clear
3:55 AM 21.2 °F 9.5 °F 21.2 °F 100% 30.04 in 10.0 mi North 11.5 mph - N/A   Mostly Cloudy
4:15 AM 21.2 °F 10.9 °F 21.2 °F 100% 30.04 in 10.0 mi North 9.2 mph - N/A   Mostly Cloudy
4:35 AM 21.2 °F 10.1 °F 21.2 °F 100% 30.03 in 10.0 mi North 10.4 mph - N/A   Overcast
4:55 AM 21.2 °F 9.5 °F 21.2 °F 100% 30.02 in 10.0 mi North 11.5 mph - N/A   Overcast
5:15 AM 21.2 °F 9.5 °F 21.2 °F 100% 30.01 in 10.0 mi North 11.5 mph - N/A   Overcast
5:35 AM 21.2 °F 8.9 °F 21.2 °F 100% 30.01 in 10.0 mi North 12.7 mph - N/A   Overcast
5:55 AM 21.2 °F 9.5 °F 21.2 °F 100% 30.01 in 10.0 mi North 11.5 mph - N/A   Overcast
6:15 AM 21.2 °F 8.3 °F 21.2 °F 100% 30.01 in 10.0 mi North 13.8 mph - N/A   Overcast
6:35 AM 21.2 °F 9.5 °F 21.2 °F 100% 30.01 in 10.0 mi NNE 11.5 mph - N/A   Overcast
6:55 AM 21.2 °F 8.3 °F 21.2 °F 100% 30.02 in 10.0 mi NNE 13.8 mph - N/A   Overcast
7:15 AM 21.2 °F 8.3 °F 21.2 °F 100% 30.01 in 10.0 mi NNE 13.8 mph - N/A   Overcast
7:35 AM 21.2 °F 8.3 °F 21.2 °F 100% 30.01 in 10.0 mi NNE 13.8 mph - N/A   Overcast
7:55 AM 21.2 °F 8.3 °F 21.2 °F 100% 30.02 in 7.0 mi NE 13.8 mph - N/A   Overcast
8:15 AM 21.2 °F 8.3 °F 21.2 °F 100% 30.02 in 4.0 mi NNE 13.8 mph - N/A   Overcast
8:35 AM 21.2 °F 10.1 °F 21.2 °F 100% 30.03 in 3.0 mi NNE 10.4 mph - N/A   Overcast
8:55 AM 21.2 °F 10.1 °F 21.2 °F 100% 30.05 in 0.8 mi NE 10.4 mph - N/A   Overcast
9:15 AM 21.2 °F 10.9 °F 21.2 °F 100% 30.05 in 0.5 mi NNE 9.2 mph - N/A Snow Light Snow
9:35 AM 21.2 °F 8.3 °F 21.2 °F 100% 30.03 in 0.8 mi North 13.8 mph - N/A Snow Light Snow
9:55 AM 21.2 °F 9.5 °F 21.2 °F 100% 30.05 in 0.5 mi NNE 11.5 mph - N/A Snow Snow
10:15 AM 21.2 °F 9.5 °F 21.2 °F 100% 30.06 in 0.5 mi North 11.5 mph - N/A Snow Snow
10:35 AM 21.2 °F 7.8 °F 21.2 °F 100% 30.05 in 0.5 mi North 15.0 mph - N/A Snow Snow
11:15 AM 23.0 °F 11.1 °F 23.0 °F 100% 30.04 in 1.5 mi NNE 12.7 mph - N/A Snow Light Snow
11:35 AM 23.0 °F 10.1 °F 23.0 °F 100% 30.04 in 2.0 mi NNE 15.0 mph - N/A Snow Light Snow
11:55 AM 23.0 °F 11.1 °F 23.0 °F 100% 30.04 in 1.0 mi NNE 12.7 mph - N/A Snow Light Snow
12:15 PM 23.0 °F 10.6 °F 23.0 °F 100% 30.03 in 0.8 mi NNE 13.8 mph - N/A Snow Light Snow
12:35 PM 23.0 °F 10.6 °F 23.0 °F 100% 30.03 in 0.8 mi North 13.8 mph - N/A Snow Light Snow
12:55 PM 23.0 °F 11.1 °F 23.0 °F 100% 30.02 in 1.0 mi North 12.7 mph - N/A Snow Light Snow
1:15 PM 23.0 °F 11.7 °F 23.0 °F 100% 30.02 in 0.8 mi North 11.5 mph - N/A Snow Light Snow
1:35 PM 23.0 °F 10.1 °F 23.0 °F 100% 30.01 in 0.5 mi North 15.0 mph - N/A Snow Light Snow
1:55 PM 23.0 °F 9.6 °F 23.0 °F 100% 30.01 in 0.5 mi NNE 16.1 mph - N/A Snow Light Snow
2:15 PM 23.0 °F 11.7 °F 23.0 °F 100% 30.01 in 0.8 mi NNE 11.5 mph - N/A Snow Light Snow
2:35 PM 23.0 °F 10.1 °F 23.0 °F 100% 30.01 in 0.8 mi NNE 15.0 mph - N/A Snow Light Snow
2:55 PM 23.0 °F 10.6 °F 23.0 °F 100% 30.01 in 1.2 mi NNE 13.8 mph - N/A Snow Light Snow
3:15 PM 23.0 °F 9.6 °F 23.0 °F 100% 30.01 in 1.2 mi North 16.1 mph - N/A Snow Light Snow
3:35 PM 23.0 °F 11.7 °F 23.0 °F 100% 30.02 in 2.0 mi North 11.5 mph - N/A Snow Light Snow
3:55 PM 23.0 °F 10.6 °F 23.0 °F 100% 30.03 in 3.0 mi North 13.8 mph - N/A Snow Light Snow
4:15 PM 23.0 °F 11.1 °F 23.0 °F 100% 30.03 in 4.0 mi North 12.7 mph - N/A Snow Light Snow
4:35 PM 23.0 °F 11.1 °F 23.0 °F 100% 30.04 in 4.0 mi NNE 12.7 mph - N/A Snow Light Snow
4:55 PM 23.0 °F 11.7 °F 23.0 °F 100% 30.04 in 4.0 mi NNE 11.5 mph - N/A Snow Light Snow
5:15 PM 23.0 °F 11.7 °F 23.0 °F 100% 30.04 in 5.0 mi NNE 11.5 mph - N/A Snow Light Snow
5:35 PM 23.0 °F 12.4 °F 23.0 °F 100% 30.05 in 3.0 mi NNE 10.4 mph - N/A Snow Light Snow
5:55 PM 21.2 °F 10.1 °F 21.2 °F 100% 30.05 in 3.0 mi NNE 10.4 mph - N/A Snow Light Snow
6:15 PM 21.2 °F 10.1 °F 21.2 °F 100% 30.06 in 2.5 mi NNE 10.4 mph - N/A Snow Light Snow
6:35 PM 21.2 °F 10.1 °F 21.2 °F 100% 30.06 in 5.0 mi NNE 10.4 mph - N/A Snow Light Snow
6:55 PM 21.2 °F 10.9 °F 21.2 °F 100% 30.07 in 5.0 mi NNE 9.2 mph - N/A Snow Light Snow
7:15 PM 19.4 °F 8.6 °F 19.4 °F 100% 30.07 in 4.0 mi NNE 9.2 mph - N/A Snow Light Snow
7:35 PM 19.4 °F 8.6 °F 19.4 °F 100% 30.08 in 4.0 mi NNE 9.2 mph - N/A Snow Light Snow
7:55 PM 19.4 °F 8.6 °F 19.4 °F 100% 30.08 in 4.0 mi North 9.2 mph - N/A Snow Light Snow
8:15 PM 17.6 °F 8.2 °F 17.6 °F 100% 30.09 in 7.0 mi North 6.9 mph - N/A Snow Light Snow
8:35 PM 17.6 °F 8.2 °F 17.6 °F 100% 30.09 in 7.0 mi North 6.9 mph - N/A   Overcast
8:55 PM 17.6 °F 8.2 °F 17.6 °F 100% 30.10 in 4.0 mi NNE 6.9 mph - N/A Snow Light Snow
9:15 PM 17.6 °F 7.3 °F 17.6 °F 100% 30.10 in 4.0 mi North 8.1 mph - N/A Snow Light Snow
9:35 PM 17.6 °F 9.3 °F 17.6 °F 100% 30.11 in 5.0 mi North 5.8 mph - N/A Snow Light Snow
9:55 PM 17.6 °F 12.3 °F 17.6 °F 100% 30.12 in 10.0 mi North 3.5 mph - N/A   Overcast
10:15 PM 19.4 °F 14.3 °F 19.4 °F 100% 30.13 in 7.0 mi NNE 3.5 mph - N/A   Overcast
10:35 PM 19.4 °F - 19.4 °F 100% 30.13 in 3.0 mi Calm Calm - N/A Snow Light Snow
11:15 PM 19.4 °F 12.8 °F 19.4 °F 100% 30.14 in 2.5 mi North 4.6 mph - N/A Snow Light Snow
11:35 PM 19.4 °F 14.3 °F 19.4 °F 100% 30.14 in 3.0 mi North 3.5 mph - N/A Snow Light Snow
11:55 PM 19.4 °F - 19.4 °F 100% 30.14 in 2.0 mi Calm Calm - N/A Snow Light Snow